Location: Knowlton
(51.2333°N, 1.2667°E)
Time: 10:46:10
(UTC+00:00)

Cosmos 2297 Rocket - Pass Details

Date: 18 April 2021
Orbit: 838 x 845 km, 71.0° (Epoch: 16 May)

Event Time Altitude Azimuth Distance (km) Brightness Sun altitude
Exits shadow 20:02:12 10° 148° (SSE) 2,479 4.1 -10.1°
Reaches altitude 10° 20:02:18 10° 147° (SSE) 2,452 4.1 -10.1°
Maximum altitude 20:06:21 21° 101° (E) 1,823 3.4 -10.6°
Drops below altitude 10° 20:10:24 10° 55° (NE) 2,468 4.4 -11.2°
Sets 20:13:25 0° 39° (NE) 3,410 5.3 -11.6°
